Location: Hurecourt
(47.9030°N, 6.0653°E)
Time: 04:14:49
(UTC+00:00)

CENTAUR R/B - Pass Details

Date: 14 July 2020
Orbit: 760 x 1428 km, 63.5° (Epoch: 05 August)

Event Time Altitude Azimuth Distance (km) Brightness Sun altitude
Rises 03:09:05 0° 187° (S) 3,385 4.9 -6.4°
Reaches altitude 10° 03:11:35 10° 178° (S) 2,527 4.3 -6.1°
Maximum altitude 03:16:51 35° 114° (ESE) 1,513 3.8 -5.4°
Drops below altitude 10° 03:22:56 10° 52° (NE) 2,939 7.0 -4.7°
Sets 03:26:02 0° 44° (NE) 4,015 8.4 -4.3°
